sat.trackr.live / text

‹ back to catalog

STARLINK-35070

NORAD 65680 · 2025-212E

PAYLOAD ACTIVE UNKNOWN

§ Identity

Operator
Country
US
Launch date
2025-09-21
Launch site
AFETR
Launch vehicle
Mass (kg)
RCS (m²)

Purposes: comms

External: N2YO · Heavens-Above · Gunter

§ Orbital elements

Epoch: 2026-05-24T22:48:13.040352Z

Period
94.10 min
Inclination
53.1616°
Eccentricity
0.0000977
Mean motion
15.30206404 rev/d
Perigee alt
474.5 km
Apogee alt
475.9 km
Semi-major
6,853.3 km
B*
7.5124e-4
RAAN
351.1466°
Arg perigee
91.2236°
Mean anomaly
268.8877°
Rev number
3,892

§ Raw data

STARLINK-350701 65680U 25212E   26144.95015093  .00021961  00000+0  75124-3 0  99962 65680  53.1616 351.1466 0000977  91.2236 268.8877 15.30206404 38924

JSON: /api/v1/satellites/65680 · /tle

For live sub-satellite position, see the globe view (requires WebGL).

§ Visibility from observer

Set your observer location to see the next 7 days of passes ≥ 10°. The values pass through the URL so the page stays shareable.

No JS? Fill the form by hand. The geolocation button needs JavaScript.